Showing default

KUIPER-00122, 65951

Orbit data source: Space-Track

KUIPER-00122, 65951 is a payload satellite owned by Kuiper Systems (US) in LEO that was launched on Tue, 14 Oct 2025 UTC via an FALCON 9 launch vehicle from the Air Force Eastern Test Range (AFETR). Payload-class satellites include a variety of spacecraft equipped with specific instruments for various scientific and technological missions. These include communications satellites like Starlink; space stations such as the ISS; scientific satellites like the Hubble; Earth observation satellites from companies like Planet Labs, Umbra, and HawkEye 360; GPS; miniature CubeSats for education and research; and military/defense satellites.

Loading next visibility...
Identifier
65951, 2025-228E
Orbit
LEO
Country
Flag of USUS
Related business
Manufacturer
Kuiper Systems
Mission
Operational Commercial Communications
Bus & Motor
KUIPER, Unknown motor
Mass
~490 kg wet, ~490 kg dry
Launch date (UTC)
2025-10-14 (8 months ago)
Launch vehicle
FALCON 9
Launch site
Air Force Eastern Test Range (AFETR)
Object type
Payload
Rocket body
Debris
Shape & HBR
Box + 2 Pan, 3.4 m
Radar Cross Section
2.326 m², Large (>1 m²)

Expand to show TLE details & history
Last TLE update: 10 hours ago

TLE from 10 hours ago
0 KUIPER-00122
1 65951U 25228E   26171.43929992  .00001228  00000-0  19006-3 0  9991
2 65951  51.9022 268.7042 0000934 108.7759 251.3305 14.79929907 38411
Epoch: 2026-06-20T10:32Z
TLE epoch observation values (Epoch: 2026-06-20T10:32:35.513Z)
Latitude
0.00002°
Longitude
-158.09766°
Altitude
630.502 km
Speed
7.544 km/s
True Right ascension
17h 54m 49s
True Declination
0° 00' 00"
Sunlit
Object was in full shadow at epoch
Visualization orbit readout
Latitude
Unknown
Longitude
Unknown
Altitude
Unknown
Speed
Unknown
Apparent Right ascension
Unknown
Apparent Declination
Unknown
Sunlit
N/A
Visualization observer readout
Local Sidereal Time
07:12:38
Azimuth
Unknown
Elevation
Unknown
Doppler factor
Unknown
Orbital elements
Apogee altitude
630.651 km
Perigee altitude
629.342 km
Semi-major axis
7,008.133 km
Eccentricity
0.00009
Inclination
51.9022°
RAAN
268.7042°
Arg. of periapsis
108.7759°
True anomaly
251.32036°
Mean anomaly
251.3305°
Eccentric anomaly
251.32543°
Mean motion
3.69947 °/min
Orbital period
97.31 mins
BSTAR
0.00019006
Loading maneuver chart data...
Computing Atmospheric mass density...
Loading historical data...
Loading historical data...
Loading historical data...
Loading historical data...
Loading historical data...
Loading historical data...
Loading historical data...

Documentation

Showing up to 5 results
|